[[{"header":{"parameterUnit":"m.s-1","parameterCategory":2,"la1":30.2991,"la2":30.254,"lo1":-89.0895,"lo2":-89.0444,"dy":0.0017,"dx":0.0017,"nx":28,"ny":28,"refTime":"2025-02-04T03:00:00:Z","depth":"0","parameterNumber":2,"parameterNumberName":"U-component_of_CURRENTS"},"data":[0,0,0,0,0,0,0,0,0,0,0,0,0,0,0,0,0,0,0,0,0,0,0,0,0,0,0,0,0,0,0,0,0,0,0,0,0,0,0,0,0,0,0,0,0,0,0,0,0,0,0,0,0,0,0,0,0,0,0.257,0.257,0,0.2594,0.2594,0.2595,0.2637,0.2638,0.2638,0.2639,0.2731,0.2733,0.2735,0,0,0,0,0,0,0,0,0,0,0,0,0,0.2571,0.2571,0.257,0.257,0.257,0.2594,0.2594,0.2595,0.2637,0.2638,0.2639,0.2639,0.2731,0.2733,0.2735,0,0,0,0,0,0,0,0,0,0,0,0,0,0.2581,0.2571,0.257,0.2593,0.2596,0.2594,0.2594,0.2595,0.2637,0.2638,0.2639,0.264,0.273,0.2733,0.2735,0.2731,0,0,0.2744,0.2745,0,0,0,0,0,0,0,0,0.2581,0.2581,0.259,0.2592,0.2594,0.2613,0.2628,0.2643,0.2636,0.2622,0.2639,0.264,0.2697,0.2702,0.2705,0.2735,0.2739,0.2744,0.2746,0.2747,0.2747,0,0,0,0,0,0,0,0.258,0.2581,0.258,0.259,0.2593,0.2606,0.2609,0.2631,0.2655,0.2624,0.2626,0.2627,0.2699,0.2702,0.2707,0.274,0.2744,0.2746,0.2748,0.2749,0.2879,0.2881,0,0,0,0,0,0,0.2573,0.258,0.258,0.2581,0.2589,0.2605,0.2608,0.2607,0.2654,0.2661,0.2626,0.2629,0.2697,0.2704,0.2711,0.2773,0.2747,0.2749,0.2751,0.2877,0.288,0.2882,0,0,0,0,0,0,0.2573,0.2573,0.2579,0.258,0.2582,0.2604,0.2602,0.2606,0.2616,0.2655,0.2664,0.2631,0.2698,0.2707,0.2749,0.2774,0.275,0.2753,0.2875,0.2878,0.2881,0.2855,0,0,0,0,0,0,0.2573,0.2572,0.2568,0.258,0.2582,0.258,0.2601,0.2606,0.2613,0.2618,0.2662,0.2671,0.27,0.2745,0.2751,0.2778,0.2755,0.2873,0.2876,0.288,0.2854,0.2857,0.2859,0,0,0,0,0,0.2573,0.2562,0.2568,0.2568,0.2575,0.258,0.2582,0.2602,0.2613,0.2615,0.2656,0.267,0.2773,0.2747,0.2755,0.2783,0.2871,0.2875,0.2879,0.2852,0.2856,0.2859,0,0,0,0,0,0,0.2557,0.2565,0.2572,0.2564,0.2572,0.2587,0.2587,0.2598,0.2628,0.2636,0.2677,0.2689,0.2745,0.2766,0.2737,0.2836,0.2831,0.2837,0.2808,0.2812,0.2814,0.284,0.2757,0,0,0,0,0,0.2551,0.2548,0.2558,0.2551,0.2553,0.2569,0.2572,0.2585,0.261,0.2623,0.2655,0.2705,0.2765,0.2788,0.2835,0.2868,0.2918,0.29,0.2903,0.2905,0.2935,0.3042,0.3058,0.2895,0.2895,0.2895,0,0,0.2539,0.2546,0.2542,0.2548,0.2555,0.2567,0.2574,0.2577,0.2601,0.2629,0.2669,0.2711,0.2779,0.2833,0.286,0.2852,0.2969,0.291,0.2911,0.2941,0.3048,0.3064,0.3078,0.2898,0.2898,0.2897,0,0,0.2524,0.2524,0.2521,0.2533,0.2543,0.2556,0.2556,0.2571,0.2593,0.2625,0.2676,0.2734,0.2788,0.2857,0.2899,0.2945,0.2985,0.2958,0.2984,0.3087,0.3101,0.3115,0.3157,0.3174,0.2954,0.2953,0.2953,0,0.2508,0.2516,0.252,0.2531,0.2545,0.2553,0.2565,0.2587,0.2617,0.2651,0.2639,0.2776,0.2812,0.2926,0.2947,0.2952,0.3,0.2955,0.309,0.3105,0.3119,0.3159,0.3179,0.2953,0.2953,0.2953,0.2953,0,0.2503,0.2513,0.2512,0.2536,0.2549,0.2555,0.2587,0.2606,0.2625,0.2663,0.2756,0.2811,0.2901,0.2919,0.2946,0.3073,0.3068,0.308,0.3074,0.3133,0.3172,0.3192,0.2952,0.2952,0.2952,0.2952,0,0,0.2451,0.2499,0.2499,0.252,0.2555,0.2562,0.2607,0.2659,0.2702,0.2744,0.282,0.292,0.2954,0.3008,0.305,0.3133,0.3243,0.3147,0.3153,0.3176,0.3441,0.3384,0.34,0.3282,0.3287,0.3291,0.3411,0,0.2445,0.2475,0.2502,0.2531,0.2549,0.2586,0.2633,0.2687,0.273,0.28,0.289,0.297,0.2989,0.3026,0.3123,0.3229,0.3306,0.3208,0.3394,0.3399,0.3332,0.3426,0.3337,0.3434,0.3431,0.3435,0.3437,0,0.2433,0.2459,0.2489,0.255,0.256,0.2578,0.2652,0.269,0.2801,0.2842,0.2945,0.3012,0.3157,0.3145,0.337,0.3309,0.3385,0.3449,0.3455,0.3437,0.3384,0.3387,0.3473,0.3362,0.3469,0.3467,0.3465,0,0.2404,0.245,0.2476,0.2495,0.2561,0.2582,0.2612,0.2703,0.2744,0.2866,0.2911,0.309,0.3162,0.3324,0.3446,0.343,0.3667,0.3657,0.3673,0.3666,0.3648,0.3633,0.3647,0.3824,0.3824,0.3823,0.3823,0,0.2394,0.241,0.246,0.2474,0.2505,0.2555,0.2594,0.2652,0.2743,0.2801,0.2925,0.3006,0.3216,0.3361,0.3482,0.3639,0.3703,0.3713,0.3722,0.3629,0.3612,0.3561,0.3512,0.3828,0.3827,0.3826,0.3825,0,0.2358,0.2395,0.2419,0.2476,0.249,0.2502,0.255,0.2582,0.2671,0.2748,0.2788,0.2972,0.3163,0.3342,0.3586,0.3658,0.3725,0.3848,0.3689,0.3678,0.3586,0.3538,0.3485,0.3384,0.3913,0.3913,0.3913,0,0.2346,0.2357,0.2398,0.2399,0.2415,0.2437,0.2454,0.2535,0.2563,0.2721,0.2758,0.2955,0.3093,0.3406,0.3592,0.3801,0.3692,0.3797,0.3766,0.3597,0.3553,0.3391,0.3298,0.3714,0.3712,0.3711,0.371,0,0.2315,0.2324,0.234,0.2343,0.2347,0.2352,0.2375,0.2397,0.2496,0.2575,0.2694,0.282,0.3117,0.3304,0.3555,0.3683,0.3608,0.3771,0.3674,0.3477,0.3232,0.3131,0.3565,0.3696,0.3698,0.3699,0.3699,0.37,0.2278,0.2269,0.2278,0.2273,0.2269,0.2252,0.2237,0.2284,0.2332,0.2429,0.2586,0.2742,0.3034,0.3398,0.3478,0.3549,0.3522,0.3522,0.3501,0.3367,0.3205,0.3574,0.3661,0.3662,0.3663,0.3664,0.3665,0,0.2219,0.2213,0.2207,0.218,0.2134,0.2165,0.217,0.215,0.2178,0.2326,0.2428,0.271,0.2921,0.3143,0.3346,0.3295,0.3174,0.3227,0.2999,0.2941,0.3364,0.3289,0.3204,0.3204,0.3204,0.3204,0.3204,0.3204,0.2188,0.2153,0.2145,0.2052,0.2025,0.1949,0.1938,0.1941,0.2019,0.2132,0.2272,0.245,0.2763,0.3059,0.3087,0.304,0.2809,0.2725,0.2675,0.2995,0.302,0.3043,0.296,0.2807,0.2807,0.2145,0.214,0.2137]},{"header":{"parameterUnit":"m.s-1","parameterCategory":2,"la1":30.2991,"la2":30.254,"lo1":-89.0895,"lo2":-89.0444,"dy":0.0017,"dx":0.0017,"nx":28,"ny":28,"refTime":"2025-02-04T03:00:00:Z","depth":"0","parameterNumber":3,"parameterNumberName":"V-component_of_CURRENTS"},"data":[0,0,0,0,0,0,0,0,0,0,0,0,0,0,0,0,0,0,0,0,0,0,0,0,0,0,0,0,0,0,0,0,0,0,0,0,0,0,0,0,0,0,0,0,0,0,0,0,0,0,0,0,0,0,0,0,0,0,0.1095,0.1094,0,0.1028,0.1028,0.1027,0.0972,0.0972,0.0971,0.097,0.0964,0.0964,0.0965,0,0,0,0,0,0,0,0,0,0,0,0,0,0.1184,0.1183,0.1095,0.1094,0.1093,0.1029,0.1028,0.1027,0.0973,0.0972,0.0971,0.097,0.0964,0.0964,0.0965,0,0,0,0,0,0,0,0,0,0,0,0,0,0.1135,0.1182,0.1095,0.1058,0.1054,0.1029,0.1028,0.1027,0.0973,0.0972,0.0971,0.097,0.0964,0.0964,0.0965,0.0989,0,0,0.0967,0.0967,0,0,0,0,0,0,0,0,0.1138,0.1132,0.1064,0.106,0.1055,0.1007,0.1056,0.1017,0.0973,0.1005,0.097,0.0969,0.0984,0.0983,0.0973,0.0989,0.0989,0.0967,0.0968,0.0968,0.0968,0,0,0,0,0,0,0,0.1142,0.1135,0.107,0.1063,0.1058,0.1047,0.1039,0.1049,0.1003,0.1002,0.0997,0.0988,0.0982,0.0973,0.0973,0.0989,0.0967,0.0968,0.0968,0.0968,0.109,0.1093,0,0,0,0,0,0,0.1148,0.1138,0.1072,0.1068,0.1094,0.1046,0.1037,0.1024,0.1001,0.0996,0.0989,0.0986,0.0972,0.0972,0.0973,0.1056,0.0968,0.0968,0.0969,0.1087,0.1091,0.1094,0,0,0,0,0,0,0.115,0.1143,0.1075,0.1101,0.1091,0.1045,0.1032,0.1024,0.1014,0.0991,0.0987,0.0988,0.0971,0.0972,0.1012,0.1053,0.0969,0.0969,0.1084,0.1088,0.1092,0.1188,0,0,0,0,0,0,0.1153,0.1144,0.114,0.1101,0.109,0.1077,0.1032,0.1023,0.1009,0.1004,0.0989,0.0986,0.097,0.1012,0.1013,0.1053,0.097,0.108,0.1086,0.1091,0.1182,0.1195,0.1207,0,0,0,0,0,0.1156,0.1156,0.114,0.1132,0.1085,0.1078,0.1073,0.1037,0.101,0.1021,0.1023,0.0987,0.1046,0.1015,0.1015,0.1057,0.1078,0.1084,0.109,0.1176,0.1193,0.1207,0,0,0,0,0,0,0.1194,0.1149,0.1131,0.1117,0.1107,0.1069,0.1066,0.1045,0.105,0.1043,0.1023,0.1023,0.1075,0.106,0.1026,0.111,0.1056,0.1063,0.1121,0.1136,0.1149,0.1153,0.0971,0,0,0,0,0,0.1201,0.1188,0.1155,0.1148,0.114,0.1106,0.1096,0.1077,0.1071,0.1068,0.1068,0.1075,0.1103,0.1113,0.113,0.1175,0.1127,0.1204,0.1217,0.1227,0.1234,0.1211,0.1221,0.1114,0.1114,0.1114,0,0,0.1214,0.1188,0.1181,0.1156,0.1137,0.1149,0.1098,0.109,0.112,0.1072,0.1119,0.112,0.1127,0.1182,0.1203,0.1172,0.1232,0.1235,0.1244,0.1245,0.1219,0.1228,0.1237,0.1119,0.1118,0.1117,0,0,0.1237,0.1212,0.1208,0.1207,0.1185,0.1179,0.1182,0.1161,0.117,0.1215,0.1197,0.1227,0.126,0.1277,0.1289,0.1384,0.1303,0.1388,0.1451,0.1429,0.1437,0.1443,0.1378,0.1378,0.1391,0.1391,0.1391,0,0.1254,0.1242,0.1212,0.1218,0.1226,0.1199,0.122,0.1237,0.1243,0.1267,0.1247,0.1308,0.1309,0.1378,0.1414,0.1412,0.1365,0.1388,0.1442,0.1448,0.1452,0.1385,0.1383,0.1396,0.1396,0.1395,0.1395,0,0.1273,0.1274,0.1277,0.128,0.1297,0.1308,0.1327,0.136,0.1368,0.1379,0.1446,0.1451,0.148,0.1495,0.1485,0.1535,0.1478,0.146,0.1395,0.1468,0.1393,0.1389,0.1404,0.1402,0.14,0.1399,0,0,0.1282,0.1287,0.1288,0.1307,0.1327,0.1345,0.1417,0.1467,0.1517,0.1537,0.1594,0.1647,0.1626,0.1639,0.1626,0.1615,0.1605,0.1555,0.1552,0.1475,0.1517,0.1472,0.1462,0.1586,0.1586,0.1587,0.1443,0,0.1305,0.1325,0.1333,0.1392,0.1409,0.1438,0.1516,0.1568,0.1608,0.1665,0.1675,0.1722,0.1689,0.17,0.1691,0.1646,0.1603,0.1643,0.1472,0.1466,0.1405,0.1461,0.1426,0.1296,0.1439,0.1438,0.1438,0,0.1316,0.1333,0.1373,0.1448,0.1462,0.1509,0.1615,0.1677,0.1757,0.1791,0.1825,0.182,0.1844,0.1784,0.1719,0.1742,0.1633,0.1572,0.1565,0.1488,0.1417,0.1252,0.1283,0.1042,0.1431,0.1432,0.1432,0,0.1322,0.1369,0.1404,0.1424,0.1504,0.1553,0.161,0.1706,0.1777,0.1852,0.1893,0.191,0.1914,0.1824,0.1722,0.1709,0.1612,0.1572,0.1413,0.1405,0.1327,0.1313,0.1094,0.1478,0.1479,0.1479,0.1479,0,0.1336,0.1369,0.1408,0.1429,0.1511,0.1564,0.1667,0.1736,0.1836,0.1922,0.1939,0.1992,0.1922,0.1867,0.1743,0.1587,0.1621,0.1429,0.138,0.1359,0.1351,0.1098,0.1005,0.1474,0.1475,0.1476,0.1477,0,0.1331,0.1348,0.1399,0.1477,0.1506,0.1564,0.169,0.1774,0.186,0.1964,0.1988,0.2047,0.1995,0.1892,0.1748,0.1611,0.1334,0.1377,0.1344,0.1296,0.0929,0.0846,0.0628,0.0534,0.1176,0.1175,0.1173,0,0.1327,0.1344,0.1417,0.1455,0.1486,0.1575,0.1655,0.1772,0.1865,0.1999,0.2052,0.2046,0.2075,0.1866,0.1644,0.1413,0.1241,0.1181,0.1162,0.0908,0.0778,0.0734,0.0669,0.1073,0.1071,0.1069,0.1068,0,0.1329,0.1346,0.1388,0.1458,0.1528,0.1629,0.1741,0.1819,0.1964,0.2057,0.2167,0.2197,0.2025,0.183,0.1528,0.1353,0.1027,0.1134,0.0888,0.0701,0.0624,0.0511,0.1133,0.1052,0.1054,0.1055,0.1056,0.1056,0.1327,0.1354,0.1401,0.1477,0.1559,0.168,0.1771,0.1899,0.2043,0.22,0.2228,0.2302,0.1992,0.1611,0.1335,0.0789,0.0863,0.0617,0.0537,0.0515,0.0432,0.1009,0.0875,0.0875,0.0876,0.0876,0.0876,0,0.1321,0.1358,0.1424,0.1517,0.1611,0.1665,0.1836,0.1943,0.2099,0.224,0.2339,0.2232,0.1785,0.1347,0.0647,0.0262,0.015,0.0055,-0.0038,-0.0074,0.043,0.0431,0.0176,0.0176,0.0176,0.0177,0.0177,0.0177,0.1317,0.1366,0.1409,0.1543,0.1619,0.1769,0.1871,0.2024,0.2165,0.2313,0.2372,0.2424,0.2028,0.0765,-0.0126,-0.0299,-0.057,-0.0597,-0.0718,-0.0419,-0.0373,-0.033,-0.0355,-0.077,-0.0771,-0.119,-0.1194,-0.1198]}],[{"header":{"parameterUnit":"m.s-1","parameterCategory":2,"la1":30.2991,"la2":30.254,"lo1":-89.0895,"lo2":-89.0444,"dy":0.0017,"dx":0.0017,"nx":28,"ny":28,"refTime":"2025-02-04T03:00:00:Z","depth":"2","parameterNumber":2,"parameterNumberName":"U-component_of_CURRENTS"},"data":[0,0,0,0,0,0,0,0,0,0,0,0,0,0,0,0,0,0,0,0,0,0,0,0,0,0,0,0,0,0,0,0,0,0,0,0,0,0,0,0,0,0,0,0,0,0,0,0,0,0,0,0,0,0,0,0,0,0,0.1492,0.1492,0,0.1529,0.1529,0.153,0.1561,0.1561,0.1562,0.1562,0.1602,0.1603,0.1603,0,0,0,0,0,0,0,0,0,0,0,0,0,0.1447,0.1448,0.1492,0.1492,0.1493,0.1529,0.1529,0.153,0.1561,0.1561,0.1562,0.1562,0.1602,0.1603,0.1604,0,0,0,0,0,0,0,0,0,0,0,0,0,0.1472,0.1448,0.1492,0.1514,0.1516,0.1529,0.1529,0.153,0.1561,0.1561,0.1562,0.1563,0.1602,0.1603,0.1604,0.1595,0,0,0.1606,0.1607,0,0,0,0,0,0,0,0,0.1471,0.1474,0.151,0.1512,0.1515,0.1542,0.1528,0.1552,0.156,0.1542,0.1562,0.1563,0.1583,0.1585,0.1589,0.1597,0.1599,0.1607,0.1607,0.1608,0.1608,0,0,0,0,0,0,0,0.1469,0.1472,0.1505,0.1511,0.1514,0.1522,0.1526,0.1533,0.1557,0.1544,0.1547,0.1553,0.1584,0.1588,0.159,0.1599,0.1607,0.1607,0.1608,0.1608,0.1664,0.1665,0,0,0,0,0,0,0.1467,0.1471,0.1504,0.1506,0.1496,0.1522,0.1527,0.1532,0.1557,0.1562,0.1552,0.1554,0.1586,0.1589,0.1591,0.1627,0.1608,0.1608,0.1609,0.1663,0.1664,0.1665,0,0,0,0,0,0,0.1466,0.1469,0.1502,0.1491,0.1496,0.1523,0.1527,0.1532,0.1556,0.1564,0.1568,0.1574,0.1586,0.159,0.1618,0.1628,0.1609,0.161,0.1662,0.1664,0.1665,0.1671,0,0,0,0,0,0,0.1464,0.1469,0.1475,0.149,0.1496,0.1522,0.1527,0.1532,0.1558,0.1561,0.1583,0.1586,0.1587,0.1617,0.1619,0.1629,0.161,0.1661,0.1663,0.1664,0.1669,0.1672,0.1675,0,0,0,0,0,0.1462,0.1463,0.1475,0.1479,0.1503,0.1523,0.1527,0.1547,0.1559,0.1571,0.159,0.1587,0.163,0.1618,0.1621,0.1631,0.166,0.1662,0.1664,0.1668,0.1672,0.1674,0,0,0,0,0,0,0.1443,0.1467,0.148,0.1488,0.1512,0.1529,0.1541,0.1557,0.1581,0.159,0.1597,0.1602,0.1626,0.1633,0.1621,0.1654,0.1645,0.1647,0.1647,0.165,0.1653,0.1644,0.1611,0,0,0,0,0,0.1442,0.1454,0.1479,0.1488,0.1501,0.1526,0.1539,0.1557,0.1578,0.159,0.1607,0.1625,0.1632,0.1647,0.1654,0.1676,0.1682,0.1686,0.1688,0.169,0.1687,0.1698,0.17,0.1672,0.1672,0.1672,0,0,0.1434,0.1452,0.1457,0.1486,0.1505,0.1519,0.1536,0.1563,0.1576,0.159,0.1618,0.1632,0.1639,0.1659,0.1671,0.167,0.1707,0.1693,0.1694,0.169,0.17,0.1703,0.1705,0.1674,0.1673,0.1673,0,0,0.1421,0.1445,0.1451,0.1472,0.151,0.1526,0.154,0.1574,0.1593,0.162,0.163,0.1654,0.1675,0.1682,0.1685,0.1709,0.1714,0.1719,0.1731,0.1742,0.1743,0.1745,0.1774,0.1778,0.1727,0.1727,0.1727,0,0.1413,0.1423,0.1456,0.1469,0.1486,0.1531,0.1541,0.1563,0.1604,0.1622,0.1632,0.167,0.1679,0.1695,0.1705,0.1712,0.1728,0.1715,0.1743,0.1745,0.1746,0.1776,0.178,0.1728,0.1728,0.1728,0.1727,0,0.1402,0.1417,0.1424,0.1456,0.1479,0.1499,0.1535,0.1568,0.1599,0.1622,0.1659,0.1677,0.1704,0.171,0.1713,0.1736,0.1748,0.1738,0.173,0.1749,0.178,0.1784,0.1728,0.1728,0.1728,0.1728,0,0,0.1364,0.1408,0.141,0.1427,0.1477,0.1494,0.1524,0.1563,0.1595,0.163,0.1665,0.168,0.1712,0.1718,0.1735,0.1746,0.1777,0.1753,0.1753,0.1774,0.1821,0.1822,0.1827,0.1774,0.1774,0.1774,0.1844,0,0.1348,0.1361,0.1392,0.1412,0.1426,0.1479,0.1506,0.1552,0.1597,0.1648,0.1673,0.1717,0.1709,0.1743,0.1747,0.1778,0.1787,0.176,0.1806,0.1808,0.1799,0.1831,0.1689,0.1738,0.1848,0.1849,0.185,0,0.1325,0.1341,0.1351,0.1403,0.1416,0.1439,0.1507,0.1541,0.1615,0.1657,0.1703,0.1741,0.1784,0.1769,0.1812,0.18,0.1807,0.1817,0.1819,0.1817,0.1816,0.1734,0.1742,0.1857,0.1857,0.1856,0.1855,0,0.1279,0.1314,0.1322,0.1337,0.1399,0.1424,0.1467,0.1543,0.1597,0.168,0.1741,0.1779,0.184,0.1835,0.1882,0.185,0.1929,0.1885,0.1885,0.1886,0.1771,0.1762,0.1889,0.1888,0.1888,0.1888,0.1888,0,0.1249,0.1257,0.1305,0.1311,0.135,0.1401,0.1464,0.152,0.1616,0.1693,0.1753,0.1828,0.186,0.1921,0.1908,0.1939,0.1955,0.1894,0.1902,0.1774,0.1764,0.1864,0.186,0.1891,0.189,0.189,0.1889,0,0.1201,0.1226,0.1246,0.1304,0.133,0.1362,0.1476,0.1525,0.1624,0.173,0.1769,0.1893,0.1981,0.2015,0.205,0.2003,0.201,0.2009,0.1875,0.1865,0.1946,0.1942,0.1992,0.1992,0.1993,0.1993,0.1994,0,0.1175,0.1177,0.1237,0.1264,0.1296,0.1358,0.1411,0.1518,0.1585,0.1769,0.1818,0.1961,0.2022,0.2098,0.2074,0.2064,0.2079,0.1917,0.1808,0.1953,0.1956,0.1951,0.1946,0.1667,0.1665,0.1663,0.1661,0,0.1133,0.1157,0.118,0.1236,0.1287,0.1351,0.1437,0.1492,0.163,0.1723,0.1868,0.1931,0.2032,0.1978,0.1992,0.1952,0.1903,0.1877,0.2068,0.1669,0.1653,0.1654,0.1659,0.1644,0.1646,0.1647,0.1648,0.1648,0.1109,0.1122,0.1162,0.1215,0.1274,0.1339,0.1381,0.147,0.1568,0.1671,0.1785,0.1818,0.1856,0.1797,0.1762,0.1748,0.1843,0.173,0.1733,0.1738,0.1694,0.168,0.1669,0.1671,0.1673,0.1674,0.1675,0,0.1082,0.1108,0.1146,0.1207,0.1253,0.1307,0.1395,0.1412,0.149,0.1561,0.1626,0.1509,0.1486,0.1545,0.1488,0.1477,0.1418,0.1426,0.1334,0.1354,0.1371,0.1303,0.1178,0.1176,0.1174,0.1173,0,0,0.107,0.1089,0.1112,0.1171,0.1225,0.1275,0.1317,0.1333,0.137,0.1327,0.1322,0.1385,0.1487,0.1301,0.1292,0.1234,0.1275,0.1188,0.1593,0.1505,0.152,0.1562,0.1485,0,0,0,0,0]},{"header":{"parameterUnit":"m.s-1","parameterCategory":2,"la1":30.2991,"la2":30.254,"lo1":-89.0895,"lo2":-89.0444,"dy":0.0017,"dx":0.0017,"nx":28,"ny":28,"refTime":"2025-02-04T03:00:00:Z","depth":"2","parameterNumber":3,"parameterNumberName":"V-component_of_CURRENTS"},"data":[0,0,0,0,0,0,0,0,0,0,0,0,0,0,0,0,0,0,0,0,0,0,0,0,0,0,0,0,0,0,0,0,0,0,0,0,0,0,0,0,0,0,0,0,0,0,0,0,0,0,0,0,0,0,0,0,0,0,-0.064,-0.0641,0,-0.0741,-0.0743,-0.0744,-0.0792,-0.0792,-0.0791,-0.0791,-0.0871,-0.0874,-0.0876,0,0,0,0,0,0,0,0,0,0,0,0,0,-0.0546,-0.0547,-0.064,-0.0641,-0.0642,-0.0741,-0.0743,-0.0744,-0.0792,-0.0792,-0.0791,-0.0791,-0.0871,-0.0873,-0.0876,0,0,0,0,0,0,0,0,0,0,0,0,0,-0.0613,-0.0548,-0.0639,-0.0676,-0.0681,-0.0741,-0.0743,-0.0745,-0.0792,-0.0792,-0.0791,-0.0791,-0.087,-0.0873,-0.0876,-0.0904,0,0,-0.0887,-0.0889,0,0,0,0,0,0,0,0,-0.0609,-0.0616,-0.067,-0.0674,-0.0679,-0.0752,-0.0739,-0.0796,-0.0792,-0.0751,-0.0791,-0.0791,-0.0829,-0.0835,-0.0858,-0.0908,-0.0912,-0.0887,-0.089,-0.0891,-0.0892,0,0,0,0,0,0,0,-0.0604,-0.0612,-0.0682,-0.0671,-0.0676,-0.0708,-0.0717,-0.0751,-0.0791,-0.0755,-0.0758,-0.0767,-0.0831,-0.0854,-0.086,-0.0913,-0.0887,-0.089,-0.0893,-0.0894,-0.0943,-0.0942,0,0,0,0,0,0,-0.0586,-0.0608,-0.0678,-0.0684,-0.064,-0.071,-0.072,-0.073,-0.0792,-0.08,-0.0767,-0.0769,-0.0849,-0.0856,-0.0863,-0.0842,-0.0891,-0.0894,-0.0896,-0.0944,-0.0943,-0.0942,0,0,0,0,0,0,-0.0583,-0.0591,-0.0674,-0.0647,-0.0659,-0.0711,-0.0723,-0.0732,-0.0744,-0.0801,-0.0809,-0.0767,-0.0849,-0.0858,-0.0885,-0.0847,-0.0896,-0.0899,-0.0945,-0.0943,-0.0942,-0.0836,0,0,0,0,0,0,-0.058,-0.059,-0.0586,-0.0646,-0.066,-0.0693,-0.0723,-0.0734,-0.075,-0.0753,-0.0804,-0.0812,-0.0849,-0.088,-0.0889,-0.0853,-0.0902,-0.0946,-0.0944,-0.0943,-0.0841,-0.0832,-0.0824,0,0,0,0,0,-0.0576,-0.0567,-0.0585,-0.0593,-0.0655,-0.0693,-0.0703,-0.074,-0.075,-0.075,-0.0789,-0.081,-0.0876,-0.0883,-0.0893,-0.0857,-0.0946,-0.0944,-0.0943,-0.0845,-0.0833,-0.0824,0,0,0,0,0,0,-0.0521,-0.0573,-0.0593,-0.06,-0.0637,-0.07,-0.0699,-0.0729,-0.0762,-0.0757,-0.0813,-0.0824,-0.0833,-0.0865,-0.0871,-0.0868,-0.0909,-0.091,-0.0831,-0.0821,-0.0813,-0.0784,-0.0905,0,0,0,0,0,-0.0508,-0.0513,-0.0572,-0.0572,-0.0587,-0.0641,-0.0658,-0.0684,-0.0724,-0.0738,-0.0772,-0.0806,-0.0837,-0.0844,-0.088,-0.0882,-0.0915,-0.0863,-0.0854,-0.0846,-0.0831,-0.0867,-0.086,-0.0936,-0.0936,-0.0936,0,0,-0.0484,-0.0513,-0.0516,-0.0561,-0.059,-0.0597,-0.065,-0.0664,-0.066,-0.074,-0.0735,-0.0783,-0.0835,-0.0839,-0.0843,-0.0856,-0.084,-0.0844,-0.0837,-0.0826,-0.0864,-0.0857,-0.085,-0.0935,-0.0935,-0.0935,0,0,-0.0439,-0.0466,-0.0457,-0.048,-0.0517,-0.0551,-0.0549,-0.06,-0.0611,-0.0625,-0.0678,-0.0704,-0.0744,-0.0773,-0.0794,-0.0761,-0.0803,-0.0764,-0.0686,-0.0721,-0.0715,-0.071,-0.0729,-0.0727,-0.0748,-0.0748,-0.0748,0,-0.0407,-0.0409,-0.0458,-0.0454,-0.0459,-0.0522,-0.0507,-0.053,-0.0579,-0.0583,-0.0601,-0.0667,-0.0709,-0.0722,-0.0705,-0.0738,-0.0763,-0.0719,-0.0708,-0.0704,-0.0701,-0.0723,-0.0721,-0.0743,-0.0743,-0.0744,-0.0744,0,-0.0363,-0.0358,-0.0349,-0.0364,-0.0376,-0.0372,-0.041,-0.0415,-0.0434,-0.0465,-0.0481,-0.0547,-0.0584,-0.0596,-0.0637,-0.063,-0.0657,-0.0701,-0.073,-0.0686,-0.0713,-0.0713,-0.0735,-0.0737,-0.0739,-0.074,0,0,-0.0307,-0.0317,-0.0311,-0.0299,-0.0326,-0.033,-0.0313,-0.0329,-0.0315,-0.0354,-0.0344,-0.0395,-0.0438,-0.0464,-0.0522,-0.0543,-0.0539,-0.0595,-0.0599,-0.0605,-0.0602,-0.0589,-0.0589,-0.0583,-0.0583,-0.0583,-0.0625,0,-0.0256,-0.0222,-0.0241,-0.0198,-0.0186,-0.022,-0.0201,-0.0217,-0.0239,-0.0246,-0.0306,-0.0324,-0.0385,-0.0398,-0.0429,-0.0527,-0.0537,-0.0522,-0.0651,-0.0654,-0.0641,-0.0588,-0.0554,-0.0586,-0.0626,-0.0626,-0.0626,0,-0.0211,-0.0193,-0.0145,-0.0119,-0.0114,-0.0094,-0.0078,-0.0071,-0.01,-0.0115,-0.0147,-0.0205,-0.0247,-0.0303,-0.0415,-0.0404,-0.0478,-0.0548,-0.0552,-0.0575,-0.0642,-0.064,-0.0586,-0.0628,-0.0628,-0.0628,-0.0628,0,-0.0162,-0.0124,-0.0079,-0.0071,-0.0056,-0.0028,-0.0017,-0.0029,-0.0013,-0.0035,-0.0027,-0.0103,-0.013,-0.0239,-0.0373,-0.0393,-0.0498,-0.0554,-0.0607,-0.0608,-0.062,-0.0621,-0.0609,-0.0609,-0.0609,-0.0609,-0.0609,0,-0.0115,-0.0076,-0.0048,-0.0025,0.004,0.0033,0.009,0.0086,0.009,0.0115,0.0045,0.0049,-0.0113,-0.0198,-0.0333,-0.0461,-0.0468,-0.0572,-0.0611,-0.0581,-0.0578,-0.0656,-0.0661,-0.0611,-0.061,-0.061,-0.061,0,-0.0081,-0.0064,-0.0009,0.0036,0.006,0.0104,0.0162,0.0196,0.0196,0.0227,0.023,0.0165,0.0058,-0.0106,-0.0283,-0.0391,-0.0532,-0.0573,-0.0515,-0.0544,-0.0629,-0.0628,-0.0634,-0.0634,-0.0634,-0.0633,-0.0633,0,-0.0064,-0.0034,0.0038,0.0082,0.0108,0.0175,0.0221,0.0243,0.028,0.0297,0.0317,0.0247,0.019,-0.0049,-0.0251,-0.0461,-0.0511,-0.0546,-0.0575,-0.059,-0.0628,-0.0627,-0.0627,-0.0553,-0.0552,-0.0552,-0.0551,0,-0.003,-0.0005,0.0039,0.0129,0.0194,0.0269,0.0338,0.0383,0.0408,0.0443,0.0466,0.0429,0.0223,0.0031,-0.023,-0.0375,-0.0513,-0.0538,-0.0575,-0.0545,-0.0516,-0.0552,-0.0554,-0.0545,-0.0546,-0.0546,-0.0547,-0.0547,-0.0004,0.0034,0.0096,0.018,0.0262,0.0355,0.0425,0.0494,0.0566,0.0617,0.0562,0.0523,0.0308,-0.0017,-0.0231,-0.0442,-0.047,-0.055,-0.0552,-0.0554,-0.0529,-0.0501,-0.0523,-0.0523,-0.0523,-0.0524,-0.0524,0,0.0029,0.0073,0.0148,0.0251,0.0344,0.0386,0.05,0.0571,0.0672,0.0696,0.0704,0.0504,0.0292,0.0053,-0.0246,-0.044,-0.0465,-0.0498,-0.049,-0.0495,-0.05,-0.0472,-0.0451,-0.0451,-0.0451,-0.0451,0,0,0.0048,0.0113,0.0148,0.0299,0.0386,0.052,0.0594,0.0701,0.0758,0.0786,0.0764,0.0663,0.0372,0.0173,-0.0099,-0.0261,-0.0327,-0.0293,-0.0335,-0.0298,-0.0299,-0.0518,-0.0479,0,0,0,0,0]}],[{"header":{"parameterUnit":"m.s-1","parameterCategory":2,"la1":30.2991,"la2":30.254,"lo1":-89.0895,"lo2":-89.0444,"dy":0.0017,"dx":0.0017,"nx":28,"ny":28,"refTime":"2025-02-04T03:00:00:Z","depth":"4","parameterNumber":2,"parameterNumberName":"U-component_of_CURRENTS"},"data":[0,0,0,0,0,0,0,0,0,0,0,0,0,0,0,0,0,0,0,0,0,0,0,0,0,0,0,0,0,0,0,0,0,0,0,0,0,0,0,0,0,0,0,0,0,0,0,0,0,0,0,0,0,0,0,0,0,0,0.0702,0.0703,0,0.0749,0.0749,0.075,0.0783,0.0784,0.0784,0.0784,0.0813,0.0814,0.0814,0,0,0,0,0,0,0,0,0,0,0,0,0,0.0648,0.0648,0.0702,0.0703,0.0703,0.0749,0.0749,0.075,0.0783,0.0784,0.0784,0.0785,0.0813,0.0814,0.0814,0,0,0,0,0,0,0,0,0,0,0,0,0,0.0679,0.0648,0.0702,0.0727,0.073,0.0749,0.0749,0.075,0.0783,0.0784,0.0784,0.0785,0.0813,0.0814,0.0814,0.0804,0,0,0.0816,0.0816,0,0,0,0,0,0,0,0,0.0677,0.068,0.0722,0.0725,0.0729,0.0763,0.0741,0.0768,0.0783,0.0761,0.0784,0.0785,0.0796,0.0798,0.0802,0.0805,0.0807,0.0816,0.0816,0.0816,0.0817,0,0,0,0,0,0,0,0.0675,0.0679,0.0719,0.0723,0.0727,0.0739,0.0743,0.0746,0.0772,0.0763,0.0766,0.0774,0.0797,0.0802,0.0803,0.0807,0.0816,0.0816,0.0817,0.0817,0.0875,0.0876,0,0,0,0,0,0,0.0672,0.0676,0.0717,0.072,0.0706,0.0739,0.0744,0.0749,0.0772,0.0777,0.0773,0.0775,0.0801,0.0803,0.0804,0.0857,0.0816,0.0817,0.0817,0.0874,0.0875,0.0877,0,0,0,0,0,0,0.067,0.0675,0.0715,0.0701,0.0707,0.0739,0.0745,0.075,0.0774,0.0781,0.0785,0.0794,0.0801,0.0804,0.0829,0.0856,0.0817,0.0818,0.0872,0.0874,0.0876,0.0922,0,0,0,0,0,0,0.0669,0.0674,0.0682,0.0701,0.0708,0.0737,0.0744,0.0751,0.0777,0.0781,0.0799,0.0802,0.0802,0.0828,0.083,0.0856,0.0818,0.0871,0.0873,0.0875,0.0919,0.0925,0.0931,0,0,0,0,0,0.0666,0.067,0.0682,0.0688,0.0717,0.0737,0.0742,0.0766,0.0778,0.0789,0.0808,0.0802,0.0844,0.083,0.0831,0.0858,0.087,0.0873,0.0875,0.0917,0.0924,0.0931,0,0,0,0,0,0,0.0651,0.0675,0.0688,0.07,0.0724,0.0744,0.0759,0.0774,0.0798,0.081,0.0813,0.0817,0.0851,0.0847,0.0831,0.0883,0.0858,0.0861,0.0889,0.0896,0.0902,0.0887,0.0819,0,0,0,0,0,0.0651,0.0662,0.0688,0.07,0.0714,0.074,0.0754,0.0775,0.0796,0.0808,0.0826,0.0845,0.0859,0.0872,0.0883,0.0907,0.0897,0.0927,0.0933,0.0938,0.0928,0.0943,0.0949,0.0886,0.0886,0.0886,0,0,0.065,0.0665,0.0673,0.0699,0.072,0.074,0.075,0.0781,0.0804,0.0806,0.0849,0.0865,0.087,0.0903,0.0918,0.0905,0.0953,0.0942,0.0946,0.0933,0.0946,0.0952,0.0958,0.0888,0.0887,0.0887,0,0,0.065,0.0668,0.0679,0.07,0.0737,0.0752,0.0765,0.0803,0.0828,0.0865,0.0877,0.0907,0.0934,0.0946,0.0952,0.0993,0.0982,0.1008,0.1027,0.1042,0.1047,0.1051,0.1053,0.1056,0.1012,0.1012,0.1012,0,0.0651,0.0668,0.0687,0.0705,0.0728,0.0759,0.0783,0.0806,0.0852,0.0875,0.0886,0.094,0.0951,0.0979,0.1001,0.1006,0.1009,0.1,0.1049,0.1053,0.1056,0.1056,0.106,0.1015,0.1014,0.1014,0.1014,0,0.0659,0.0681,0.0691,0.0723,0.0747,0.0775,0.0811,0.0847,0.0884,0.0909,0.096,0.098,0.1012,0.1027,0.1027,0.1064,0.1057,0.1053,0.1028,0.1065,0.1063,0.1066,0.1018,0.1018,0.1017,0.1016,0,0,0.0643,0.0688,0.0694,0.0716,0.0765,0.0783,0.0828,0.0874,0.0906,0.0954,0.0994,0.1031,0.1053,0.106,0.1074,0.1087,0.1123,0.1087,0.1086,0.1082,0.1153,0.1112,0.111,0.1135,0.1135,0.1136,0.1144,0,0.0649,0.0676,0.0707,0.0746,0.0764,0.0814,0.0847,0.0894,0.0941,0.0987,0.1017,0.1061,0.1062,0.1093,0.1107,0.1121,0.1132,0.112,0.1121,0.1121,0.1075,0.1113,0.1138,0.1146,0.1146,0.1147,0.1147,0,0.0649,0.0667,0.0703,0.0756,0.0772,0.0805,0.0874,0.0917,0.0981,0.1019,0.1066,0.1092,0.113,0.1126,0.1154,0.1151,0.1155,0.1155,0.1155,0.1098,0.1085,0.11,0.1152,0.1152,0.1151,0.1151,0.1151,0,0.0614,0.0666,0.0694,0.0713,0.0775,0.0815,0.0864,0.0931,0.0971,0.1054,0.1088,0.1128,0.1166,0.1172,0.1186,0.118,0.1203,0.1194,0.1152,0.1149,0.1161,0.1156,0.1204,0.1204,0.1204,0.1204,0.1204,0,0.0602,0.0625,0.0684,0.0699,0.0743,0.0805,0.0869,0.0923,0.0996,0.1043,0.111,0.1143,0.1184,0.1204,0.1198,0.1185,0.1216,0.1154,0.115,0.1182,0.1179,0.1163,0.1158,0.1204,0.1204,0.1204,0.1204,0,0.0562,0.06,0.0631,0.07,0.0729,0.0767,0.0868,0.0906,0.0992,0.1058,0.1089,0.1164,0.1207,0.1223,0.1241,0.1205,0.1192,0.1178,0.1209,0.1208,0.1121,0.1119,0.1126,0.1125,0.1124,0.1123,0.1122,0,0.0543,0.0554,0.0621,0.0646,0.0688,0.0757,0.0801,0.0895,0.094,0.1061,0.1079,0.1158,0.1201,0.1182,0.121,0.1195,0.1182,0.1163,0.1137,0.1118,0.1115,0.1114,0.1113,0.112,0.112,0.112,0.1119,0,0.0504,0.0532,0.056,0.0605,0.0656,0.0707,0.0786,0.0804,0.0919,0.0994,0.1055,0.1089,0.1137,0.1154,0.1159,0.1142,0.1167,0.115,0.1152,0.1128,0.1111,0.1109,0.1109,0.1116,0.1116,0.1116,0.1117,0,0.0477,0.0484,0.0522,0.0562,0.0617,0.0653,0.0698,0.0762,0.0813,0.0947,0.0964,0.1054,0.1129,0.1127,0.1125,0.1118,0.11,0.1053,0.106,0.1065,0.1043,0.1012,0.0984,0,0,0,0,0,0.0447,0.0452,0.0479,0.0519,0.0571,0.0606,0.0684,0.0731,0.0833,0.0853,0.091,0.0957,0.0998,0.1037,0.1016,0.1088,0.109,0.1059,0.1037,0.1094,0.1098,0.1079,0,0,0,0,0,0,0.0425,0.0447,0.0456,0.0475,0.0501,0.0551,0.0598,0.0664,0.0684,0.0792,0.0815,0.0903,0.0945,0.1,0.0999,0.101,0.0978,0.1113,0.1111,0.1091,0.1095,0.1099,0.1081,0,0,0,0,0]},{"header":{"parameterUnit":"m.s-1","parameterCategory":2,"la1":30.2991,"la2":30.254,"lo1":-89.0895,"lo2":-89.0444,"dy":0.0017,"dx":0.0017,"nx":28,"ny":28,"refTime":"2025-02-04T03:00:00:Z","depth":"4","parameterNumber":3,"parameterNumberName":"V-component_of_CURRENTS"},"data":[0,0,0,0,0,0,0,0,0,0,0,0,0,0,0,0,0,0,0,0,0,0,0,0,0,0,0,0,0,0,0,0,0,0,0,0,0,0,0,0,0,0,0,0,0,0,0,0,0,0,0,0,0,0,0,0,0,0,-0.0062,-0.0063,0,-0.011,-0.0111,-0.0111,-0.0144,-0.0145,-0.0145,-0.0145,-0.0198,-0.0199,-0.02,0,0,0,0,0,0,0,0,0,0,0,0,0,-0.0048,-0.0048,-0.0062,-0.0063,-0.0063,-0.011,-0.0111,-0.0111,-0.0144,-0.0145,-0.0145,-0.0145,-0.0198,-0.0199,-0.0201,0,0,0,0,0,0,0,0,0,0,0,0,0,-0.0071,-0.0048,-0.0062,-0.0085,-0.0088,-0.011,-0.0111,-0.0111,-0.0144,-0.0145,-0.0145,-0.0145,-0.0197,-0.0199,-0.0201,-0.0206,0,0,-0.0206,-0.0207,0,0,0,0,0,0,0,0,-0.007,-0.0072,-0.0081,-0.0083,-0.0086,-0.0121,-0.0125,-0.0143,-0.0144,-0.0123,-0.0145,-0.0145,-0.0172,-0.0176,-0.0185,-0.0208,-0.0211,-0.0206,-0.0208,-0.0208,-0.0209,0,0,0,0,0,0,0,-0.0068,-0.007,-0.0082,-0.0082,-0.0085,-0.011,-0.0113,-0.0129,-0.0146,-0.0125,-0.0127,-0.0132,-0.0174,-0.0183,-0.0187,-0.0211,-0.0206,-0.0208,-0.0209,-0.021,-0.0249,-0.0249,0,0,0,0,0,0,-0.0058,-0.0068,-0.008,-0.0083,-0.0078,-0.0109,-0.0113,-0.011,-0.0146,-0.0151,-0.0132,-0.0133,-0.018,-0.0184,-0.0189,-0.0202,-0.0208,-0.021,-0.0211,-0.0249,-0.0249,-0.0249,0,0,0,0,0,0,-0.0058,-0.0059,-0.0078,-0.0077,-0.0081,-0.0109,-0.0106,-0.0111,-0.0122,-0.015,-0.0156,-0.0137,-0.018,-0.0186,-0.0207,-0.0204,-0.0211,-0.0213,-0.0249,-0.0249,-0.0249,-0.0226,0,0,0,0,0,0,-0.0057,-0.0058,-0.0054,-0.0076,-0.0081,-0.0088,-0.0105,-0.0111,-0.0124,-0.0127,-0.0157,-0.0163,-0.0181,-0.0204,-0.0209,-0.0207,-0.0214,-0.0249,-0.0249,-0.0249,-0.0227,-0.0225,-0.0224,0,0,0,0,0,-0.0056,-0.005,-0.0054,-0.0055,-0.0074,-0.0087,-0.0092,-0.0114,-0.0124,-0.0126,-0.0151,-0.0162,-0.0207,-0.0206,-0.0211,-0.021,-0.0249,-0.0249,-0.0249,-0.0228,-0.0226,-0.0224,0,0,0,0,0,0,-0.0048,-0.0053,-0.0058,-0.0055,-0.0068,-0.0093,-0.01,-0.0112,-0.0133,-0.014,-0.0165,-0.0172,-0.019,-0.0202,-0.02,-0.022,-0.0228,-0.0229,-0.021,-0.0208,-0.0207,-0.0203,-0.0216,0,0,0,0,0,-0.0041,-0.0037,-0.0049,-0.005,-0.0053,-0.0075,-0.0084,-0.0099,-0.012,-0.013,-0.0152,-0.0174,-0.0193,-0.0202,-0.0222,-0.0232,-0.0247,-0.0234,-0.0232,-0.0231,-0.0231,-0.0257,-0.0258,-0.0248,-0.0248,-0.0248,0,0,-0.0041,-0.0043,-0.0043,-0.0047,-0.0061,-0.0063,-0.0082,-0.0096,-0.0101,-0.0132,-0.0149,-0.0173,-0.0195,-0.0211,-0.0219,-0.022,-0.0239,-0.0231,-0.0229,-0.023,-0.0257,-0.0258,-0.0259,-0.0248,-0.0248,-0.0248,0,0,-0.0037,-0.0037,-0.0031,-0.0036,-0.0049,-0.006,-0.006,-0.0083,-0.0096,-0.0115,-0.0138,-0.0161,-0.0187,-0.0204,-0.0215,-0.0215,-0.0232,-0.0218,-0.0204,-0.023,-0.0231,-0.0232,-0.0241,-0.0243,-0.0214,-0.0214,-0.0214,0,-0.0035,-0.0025,-0.0034,-0.0029,-0.0031,-0.0054,-0.0049,-0.0065,-0.0094,-0.0104,-0.0118,-0.0164,-0.0185,-0.02,-0.0202,-0.0212,-0.0225,-0.0209,-0.0228,-0.023,-0.0231,-0.024,-0.0243,-0.0212,-0.0213,-0.0213,-0.0213,0,-0.0023,-0.0017,-0.0015,-0.0011,-0.0015,-0.0018,-0.0033,-0.0046,-0.0065,-0.0083,-0.011,-0.0144,-0.017,-0.0177,-0.0192,-0.0209,-0.0212,-0.0226,-0.0232,-0.0231,-0.024,-0.0243,-0.0211,-0.0211,-0.0212,-0.0212,0,0,-0.0013,-0.0005,-0.0005,0.0004,-0.0004,-0.0005,-0.0014,-0.0025,-0.0031,-0.0067,-0.0078,-0.0117,-0.0139,-0.0153,-0.0174,-0.0196,-0.0217,-0.0213,-0.0215,-0.022,-0.0262,-0.0263,-0.0267,-0.0235,-0.0236,-0.0237,-0.026,0,0.0,0.0022,0.0018,0.0031,0.0043,0.0023,0.0021,0.0004,-0.002,-0.0038,-0.0077,-0.0099,-0.0127,-0.0141,-0.0167,-0.0207,-0.0226,-0.0208,-0.0264,-0.0266,-0.0266,-0.0271,-0.0239,-0.0263,-0.0264,-0.0264,-0.0265,0,0.0016,0.0032,0.0053,0.0064,0.0066,0.0067,0.006,0.0053,0.0021,0.0,-0.0034,-0.0066,-0.0103,-0.0128,-0.0194,-0.0182,-0.022,-0.0251,-0.0252,-0.0265,-0.0273,-0.0268,-0.0271,-0.027,-0.027,-0.027,-0.0269,0,0.0036,0.0054,0.0075,0.0079,0.0087,0.0086,0.0085,0.0062,0.0061,0.0021,0.0013,-0.0041,-0.0066,-0.0126,-0.0195,-0.0196,-0.0266,-0.0276,-0.0309,-0.0309,-0.031,-0.0309,-0.0323,-0.0323,-0.0323,-0.0323,-0.0323,0,0.0054,0.0069,0.0087,0.0098,0.0121,0.0113,0.012,0.0105,0.0091,0.0094,0.0035,0.0023,-0.0069,-0.012,-0.0184,-0.0256,-0.026,-0.0308,-0.0319,-0.0298,-0.0295,-0.0312,-0.031,-0.0324,-0.0323,-0.0323,-0.0323,0,0.0063,0.0076,0.0102,0.0122,0.013,0.0142,0.0152,0.0158,0.0138,0.0139,0.013,0.007,-0.0006,-0.0092,-0.0189,-0.0236,-0.0308,-0.0332,-0.0292,-0.03,-0.0333,-0.033,-0.0367,-0.0367,-0.0367,-0.0367,-0.0368,0,0.007,0.0086,0.0121,0.0141,0.0148,0.0167,0.0183,0.0178,0.0188,0.0169,0.0177,0.0106,0.0055,-0.0071,-0.0177,-0.0298,-0.0317,-0.0344,-0.0351,-0.0332,-0.034,-0.0336,-0.0333,-0.0368,-0.0368,-0.0368,-0.0368,0,0.0081,0.0092,0.0115,0.0161,0.0185,0.0213,0.0236,0.0254,0.0251,0.0238,0.0219,0.0142,0.0058,-0.0062,-0.0161,-0.0249,-0.0323,-0.0347,-0.0347,-0.0355,-0.0334,-0.0341,-0.0337,-0.0369,-0.0369,-0.0369,-0.0369,0,0.0087,0.0104,0.0139,0.0176,0.0213,0.0251,0.0261,0.028,0.0291,0.0279,0.027,0.0169,0.0106,-0.0037,-0.0127,-0.0219,-0.0243,-0.0259,-0.0264,-0.0265,-0.0237,-0.0197,-0.0199,0,0,0,0,0,0.0094,0.0116,0.0153,0.0198,0.0236,0.0259,0.0296,0.0305,0.0313,0.0312,0.0295,0.0215,0.007,-0.0001,-0.0091,-0.0145,-0.0267,-0.0254,-0.029,-0.0375,-0.0374,-0.036,0,0,0,0,0,0,0.0098,0.0131,0.0153,0.021,0.0243,0.0287,0.0313,0.0321,0.0321,0.0314,0.0237,0.0198,0.0051,0.0121,-0.0093,-0.0124,-0.0156,-0.0327,-0.0328,-0.0375,-0.0374,-0.0373,-0.0359,0,0,0,0,0]}]]